Hawthorne, CA

9:38 PM PDT on July 22, 2017 (GMT -0700)
Northrop-Hawthorne Municipal

Weather History for KHHR - March, 2012

Change the Weather History Date:

Monday, March 5, 2012

  Actual Average Record
Temperature  
Mean Temperature 66 °F -  
Max Temperature 80 °F 65 °F 81 °F (2007)
Min Temperature 53 °F 50 °F 35 °F (1945)
Cooling Degree Days 2    
Growing Degree Days 16 (Base 50)    
Moisture  
Dew Point 42 °F    
Average Humidity 52    
Maximum Humidity 94    
Minimum Humidity 15    
Precipitation  
Precipitation 0.00 in - - ()
Sea Level Pressure  
Sea Level Pressure 29.97 in    
Wind  
Wind Speed 2 mph (WSW)    
Max Wind Speed 9 mph    
Max Gust Speed -    
Visibility 8 miles    
Events      
Averages and records for this station are not official NWS values.
T = Trace of Precipitation, MM = Missing Value Source: NWS Daily Summary

Daily Weather History Graph

Daily Weather History Graph

Search for Another Location

Airport or City:

Trip Planner

Search our weather history database for the weather conditions in past years. The results will help you decide how hot, cold, wet, or windy it might be!

Date:

Astronomy

Mar. 05, 2012 Rise Set
Actual Time 6:16 AM PST 5:53 PM PST
Civil Twilight 5:51 AM PST 6:18 PM PST
Nautical Twilight 5:22 AM PST 6:47 PM PST
Astronomical Twilight 4:53 AM PST 7:16 PM PST
Moon 3:22 PM PST (3/5) 4:11 AM PST (3/5)
Length of Visible Light 12h 27m
Length of Day
11h 37m
Waxing Gibbous, 91% of the Moon is Illuminated
Mar 5
Waxing Gibbous
Mar 8
Full
Mar 14
Last Quarter
Mar 22
New
Mar 30
First Quarter

Hourly Weather History & Observations

Time (PST) Temp. Dew Point Humidity Pressure Visibility Wind Dir Wind Speed Gust Speed Precip Events Conditions
12:53 AM 61.0 °F 39.9 °F 46% 29.99 in 10.0 mi Calm Calm - N/A   Clear
1:53 AM 60.1 °F 39.9 °F 47% 29.97 in 10.0 mi Calm Calm - N/A   Clear
2:53 AM 61.0 °F 35.1 °F 38% 29.97 in 10.0 mi Calm Calm - N/A   Clear
3:53 AM 60.1 °F 36.0 °F 41% 29.96 in 10.0 mi Calm Calm - N/A   Clear
4:53 AM 62.1 °F 30.9 °F 31% 29.97 in 10.0 mi Calm Calm - N/A   Clear
5:53 AM 59.0 °F 35.1 °F 41% 29.97 in 10.0 mi Calm Calm - N/A   Clear
6:53 AM 61.0 °F 33.1 °F 35% 29.99 in 10.0 mi Calm Calm - N/A   Clear
7:53 AM 62.1 °F 34.0 °F 35% 30.01 in 10.0 mi Calm Calm - N/A   Clear
8:53 AM 68.0 °F 32.0 °F 26% 30.02 in 10.0 mi ESE 3.5 mph - N/A   Clear
9:53 AM 70.0 °F 33.1 °F 26% 30.02 in 10.0 mi SSE 3.5 mph - N/A   Clear
10:53 AM 73.0 °F 28.9 °F 20% 30.01 in 10.0 mi ESE 5.8 mph - N/A   Clear
11:53 AM 78.1 °F 27.0 °F 15% 30.01 in 10.0 mi Variable 3.5 mph - N/A   Clear
12:53 PM 78.1 °F 39.0 °F 25% 29.98 in 10.0 mi Calm Calm - N/A   Clear
1:53 PM 80.1 °F 41.0 °F 25% 29.95 in 10.0 mi Variable 5.8 mph - N/A   Clear
2:53 PM 73.0 °F 46.0 °F 38% 29.94 in 10.0 mi West 9.2 mph - N/A   Clear
3:53 PM 69.1 °F 45.0 °F 42% 29.94 in 10.0 mi WSW 6.9 mph - N/A   Clear
4:53 PM 68.0 °F 48.0 °F 49% 29.93 in 10.0 mi WSW 4.6 mph - N/A   Clear
5:53 PM 66.0 °F 48.0 °F 52% 29.94 in 10.0 mi WSW 6.9 mph - N/A   Clear
6:53 PM 61.0 °F 50.0 °F 67% 29.96 in 10.0 mi West 4.6 mph - N/A   Clear
7:53 PM 59.0 °F 50.0 °F 72% 29.96 in 10.0 mi WSW 5.8 mph - N/A   Clear
8:53 PM 57.9 °F 51.1 °F 78% 29.97 in 10.0 mi WSW 4.6 mph - N/A   Clear
9:48 PM 57.2 °F 51.8 °F 82% 29.97 in 7.0 mi West 5.8 mph - N/A   Scattered Clouds
9:53 PM 55.9 °F 52.0 °F 87% 29.97 in 6.0 mi WSW 5.8 mph - N/A   Mostly Cloudy
10:27 PM 55.4 °F 51.8 °F 88% 29.98 in 2.5 mi WNW 3.5 mph - N/A   Overcast
10:53 PM 54.0 °F 51.1 °F 90% 29.96 in 2.0 mi Calm Calm - N/A   Overcast
11:29 PM 53.6 °F 50.0 °F 88% 29.97 in 1.5 mi West 3.5 mph - N/A   Overcast
11:50 PM 53.6 °F 51.8 °F 94% 29.97 in 2.0 mi West 6.9 mph - N/A   Overcast
11:53 PM 54.0 °F 50.0 °F 86% 29.97 in 2.5 mi WSW 5.8 mph - N/A   Overcast